Volver al catálogo

STARLINK-37642

ActivoComunicacionesVLEO
NORAD 69455·PAYLOAD·🇺🇸 United States

Lanzado Jun 8, 2026 desde Cape Canaveral Space Force Station

Loading…

Próximos Pases (próximas 24 horas)

TLE

ActualizadoSource: CelesTrak SupGP

Época: Sep 15, 2026, 04:07 UTC

1 69455C 26127N   26258.17201389 -.00053505  00000+0 -15810-2 0  2585
2 69455  53.1580 190.3951 0001310  88.7699  42.2544 15.34413428    10

Sigue STARLINK-37642 en tiempo real con AllMySat

Download on the App Store